Location: Capvern
(43.1036°N, 0.3160°E)
Time: 10:58:32
(UTC+00:00)

Cosmos 1607 - Pass Details

Date: 16 October 2021
Orbit: 918 x 984 km, 65.0° (Epoch: 03 December)

Event Time Altitude Azimuth Distance (km) Brightness Sun altitude
Rises 17:38:46 0° 329° (NNW) 3,665 7.3 -5.3°
Reaches altitude 10° 17:41:33 10° 337° (NNW) 2,705 6.5 -5.8°
Maximum altitude 17:47:26 39° 46° (NE) 1,388 4.5 -6.8°
Drops below altitude 10° 17:53:12 10° 114° (ESE) 2,649 5.8 -7.9°
Enters shadow 17:54:58 - 120° (ESE) 3,259 6.2 -8.2°
